STARLINK-32286

decayed
NORAD ID: 60357 Int'l Des: 2024-138 Owner: SPXS Country: US Constellation: starlink
LEOCIRCULAR
Group

About STARLINK-32286

Description loading...

Altitude History

Altitude vs Time

uPlot chart will show altitude changes over time

Two-Line Element Set

1 60357U 24138C 24280.15845963 .06746780 12109-4 10112-2 0 9998
2 60357 53.1358 195.8207 0006605 219.3322 291.0670 16.33524131 11162
Epoch: Oct 6, 2024 • Age: 8339 hours

Current Status

Position data unavailable
Launch Date Aug 4, 2024
Age 1.1 years
Decay Date Oct 6, 2024
Type internet

Technical Details

Classification Payload
Mass 730.00 kg
Dry Mass 700.00 kg
Total Mass 730.00 kg
Length 0.30 m
Diameter 4.10 m
Span 29.00 m
Shape Box + pan
Manufacturer SPXS
Bus Type Starlink V2M
Phase Status Unknown Transfer Status
Owner/State SPXS/US

Large Constellations

Loading constellations...